User: anonymous   Login
Location: Dover
(39.1580°N, 75.5250°W)
Time: 11:11:42
(UTC-05:00)
Language:

Cosmos 1437 Rocket - Orbit

View from above orbital plane
View from above orbital plane
View from above satellite
View from above satellite

Ground track
Ground track

The orbit data is extracted from the following two-line orbital elements,

1 13771U 83003B   16042.88624127  .00002357  00000-0  14496-3 0  9998
2 13771  81.1580 209.2946 0036752 186.2409 173.8364 15.09104809799676
Epoch (UTC): 11 February 2016 21:16:11
Eccentricity: 0.0036752
inclination: 81.1580°
perigee height: 513 km
apogee height: 564 km
right ascension of ascending node: 209.2946°
argument of perigee: 186.2409°
revolutions per day: 15.09104809
mean anomaly at epoch: 173.8364°
orbit number at epoch: 79967

The dashed part of the orbit path shows where the satellite is in the earth's shadow,  

DLR